Regional Weather Roundup
Issued by NWS Albany, NY

Home | Current Version | Previous Version | Graphics & Text | Print | Product List | Glossary Off
Versions: 1 2 3 4 5 6 7 8 9 10 11 12 13 14 15 16 17 18 19 20 21 22 23 24 25 26 27 28

000
ASUS41 KALY 160110
RWRALY

NEW YORK STATE HOURLY WEATHER ROUNDUP
NATIONAL WEATHER SERVICE ALBANY NY
900 PM EDT TUE AUG 15 2017

NOTE: "FAIR" INDICATES FEW OR NO CLOUDS BELOW 12,000 FEET WITH NO
SIGNIFICANT WEATHER AND/OR NO OBSTRUCTIONS TO VISIBILITY.

NYZ032-033-038>043-046>054-057>066-NYZ062>081-082-084-160200-
EAST


CITY           SKY/WX    TMP DP  RH WIND       PRES   REMARKS
ALBANY         CLOUDY    72  67  84 SW5       29.88R
GLENS FALLS    CLOUDY    72  66  81 CALM      29.86R
POUGHKEEPSIE   MOCLDY    71  68  90 S3        29.90S
NEWBURGH       MOCLDY    70  70 100 CALM      29.93R
MONTGOMERY     CLEAR     68  66  93 CALM      29.92R
WHITE PLAINS   MOCLDY    72  70  93 SE3       29.92R FOG
ISLIP          CLOUDY    71  68  90 SE3       29.92R
NEW YORK CITY  CLOUDY    73  71  93 S6        29.91R
CENTRAL PARK   CLOUDY    72  70  93 CALM      29.94R FOG
$$

NYZ005>009-017-018-044>046-055-056-160200-
CENTRAL


CITY           SKY/WX    TMP DP  RH WIND       PRES   REMARKS
FULTON         CLEAR     66  63  90 CALM      29.89S
SYRACUSE       PTCLDY    68  65  90 SW5       29.88S
ROME           CLEAR     70  65  84 W3        29.90R
ELMIRA         CLEAR     67  65  93 CALM      29.93R
BINGHAMTON     CLEAR     63  62  97 SE5       29.95R
MONTICELLO     LGT RAIN  66  64  93 N9        29.99R
$$

NYZ026>034-041>043-087-160200-
NORTH


CITY           SKY/WX    TMP DP  RH WIND       PRES   REMARKS
WATERTOWN      CLEAR     68  65  90 S6        29.87R
FORT DRUM      NOT AVBL
OGDENSBURG     FAIR      64  62  94 CALM      29.87R
MASSENA        CLEAR     63  63 100 CALM      29.87S FOG
SARANAC LAKE   CLEAR     58  58 100 CALM      29.90S FOG
PLATTSBURGH    CLEAR     64  62  93 CALM      29.84R
$$

NYZ001>004-010>016-019>021-085-160200-
WEST


CITY           SKY/WX    TMP DP  RH WIND       PRES   REMARKS
NIAGARA FALLS  CLEAR     72  32  23 S3        29.90S
BUFFALO        PTCLDY    70  67  90 CALM      29.91R
DUNKIRK        PTCLDY    70  66  87 SW5       29.93R
JAMESTOWN      CLEAR     68  60  75 NW3       29.98R
WELLSVILLE     PTCLDY    69  61  75 NW6       29.99R
ROCHESTER      MOCLDY    72  68  87 CALM      29.91R
PENN YAN       LGT RAIN  68  65  90 CALM      29.93R
$$

             KEY
       WCI = WIND CHILL INDEX
       VSB = VISIBILITY
       HX  = HEAT INDEX
$$




USA.gov is the U.S. government's official web portal to all federal, state and local government web resources and services.